Location: Newark
(30.0333°N, 31.2167°E)
Time: 14:36:12
(UTC+00:00)

Tiros 1 - Pass Details

Date: 24 January 2020
Orbit: 630 x 664 km, 48.4° (Epoch: 28 February)

Event Time Altitude Azimuth Distance (km) Brightness Sun altitude
Rises 19:08:31 0° 290° (WNW) 2,987 11.2 -48.2°
Enters shadow 19:08:58 - 288° (WNW) 2,844 11.1 -48.3°
Reaches altitude 10° 19:11:47 10° 267° (W) 2,074 - -49.0°
Maximum altitude 19:14:28 15° 233° (SW) 1,763 - -49.5°
Drops below altitude 10° 19:17:08 10° 198° (SSW) 2,069 - -50.1°
Sets 19:20:24 0° 175° (S) 2,975 - -50.8°
